Regional Weather Roundup
Issued by NWS Charleston, SC

Current Version | Previous Version | Graphics & Text | Print | Product List | Glossary On
Versions: 1 2 3 4 5 6 7 8 9 10 11 12 13 14 15 16 17 18 19 20 21 22 23 24 25 26 27 28 29 30 31 32 33 34 35 36 37 38 39 40 41 42 43 44 45 46 47 48 49 50
493
ASUS42 KCHS 171927
RWRCHS

Regional Weather Roundup
National Weather Service Charleston SC
200 PM EST SAT FEB 17 2018

NOTE: "fair" indicates few or no clouds below 12,000 feet with no
significant weather and/or obstructions to visibility.

Not all stations are quality controlled. Use data with caution,
especially dewpoint observations.

SCZ027-030-031-034>040-042>050-172000-
...Southeast South Carolina...

CITY           SKY/WX    TMP DP  RH WIND       PRES   REMARKS
N Charleston   CLOUDY    64  57  78 E7        30.13F
Waterfront Prk   N/A     60  57  89 E10       29.99F
Mount Pleasant MOCLDY    63  57  82 NE3       30.13F HAZE
Johns Island   CLOUDY    64  59  82 NE7       30.13F HAZE
Pinopolis        N/A     63  55  77 E5        30.05F
Moncks Corner  CLOUDY    63  54  72 SE6       30.12F HAZE
Summerville    CLOUDY    64  55  72 E5        30.13F
Beaufort MCAS  CLOUDY    71  64  78 SE6       30.12F
Beaufort Arpt  CLOUDY    68  61  77 CALM      30.12S HAZE
Hilton Head Is PTSUNNY   64  59  82 NE7       30.13F
Walterboro     CLOUDY    70  61  73 SE7       30.11F
Allendale      FAIR      75  61  60 S8        30.08F

...Southern Midlands and Pee Dee...

CITY           SKY/WX    TMP DP  RH WIND       PRES   REMARKS
Georgetown     CLOUDY    55  54  94 NE7       30.15F
Kingstree      CLOUDY    59  52  77 E8        30.13F
Orangeburg     CLOUDY    68  59  73 S14G22    30.10F
Barnwell         N/A     77  61  57 S10       30.08F
Aiken          CLOUDY    72  59  64 SW9       30.10F
Manning        CLOUDY    63  43  48 MISG      30.11F
Columbia       CLOUDY    70  54  56 SE10      30.07F
Sumter         CLOUDY    62  54  73 S12       30.09F
Florence       CLOUDY    61  51  70 SE10      30.12F
Myrtle Beach   CLOUDY    55  49  80 E8        30.15F
N Myrtle Beach CLOUDY    57  51  80 E8        30.13F

$$

GAZ063-065-086>088-099>101-113>116-118-119-134>141-150-172000-
...Southeast Georgia...

CITY           SKY/WX    TMP DP  RH WIND       PRES   REMARKS
Savannah Arpt  FAIR      79  60  52 SW9       30.11F
Hunter AAF     FAIR      76  73  91 S9        30.08F
Fort Stewart   PTSUNNY   78  61  54 SW8       30.08F
Statesboro     PTSUNNY   79  56  44 SW8       30.09F
Sylvania       MOCLDY    76  64  66 SW7       30.10F
Claxton        FAIR      79  61  52 SW8       30.10F

...CSRA, Central and far Southeast Georgia...

CITY           SKY/WX    TMP DP  RH WIND       PRES   REMARKS
Thomson        CLOUDY    74  62  66 W6        30.12F
Augusta-Bush   CLOUDY    76  61  59 S13       30.06F
Augusta-Daniel CLOUDY    76  60  57 S17G24    30.07F
Swainsboro     FAIR      79  61  53 SW14      30.09F
Vidalia        PTSUNNY   81  61  50 SW15      30.11F
Eastman        FAIR      82  46  28 W13G20    30.12F
Hazlehurst     FAIR      79  54  41 SW12G20   30.12S
Alma           PTSUNNY   77  62  59 SW10      30.13F
Waycross       FAIR      76  61  59 W13       30.13F
Jesup          MOCLDY    81  57  44 SW5       30.11F
Baxley         PTSUNNY   73  61  64 SW10G16   30.12F
Brunswick      PTSUNNY   79  59  50 S7        30.11F
Saint Simons   FAIR      70  62  76 SE8       30.12F

$$

SCZ027-028-034-036>038-045-046-048>050-GAZ119-141-172000-
...Lake and Supplemental Coastal Observations...

STATION/POSITION TIME  TEMP    WIND        PRES    WAVE   SWELL
                       AIR SEA DIR/SP/G            HT/PER HT/PER/DIR
                 (UTC) (F)     (DEG/KT/KT) (MB)    (FT/S) (FT/S/D)
Winyah Bay       1845   54      40/ 10     1021.0F
Lake Murray      1830   62     150/ 10/ 12 1018.3F
ACE Basin NERRS  1845   71     110/  5     1020.0F
Fort Pulaski     1900   59 58   90/  8/  8 1020.3
Sapelo Island    1900   74     140/  6     1020.0

$$

ANZ835-935-AMZ111-154-330-350-352-354-370-450-454-472-172000-
...C-MAN and Buoy Observations...

STATION/POSITION TIME  TEMP    WIND        PRES    WAVE   SWELL
                       AIR SEA DIR/SP/G            HT/PER HT/PER/DIR
                 (UTC) (F)     (DEG/KT/KT) (MB)    (FT/S) (FT/S/D)
Buoy 41004       1910   69 69   20/  2/  4 1019.0
Buoy 41008       1850   58 59  190/  6/  8 1020.3F   2/11   2/ 80/11
Folly Beach CMAN 1900   58      30/ 13/ 15 1020.8F
Capers Nearshore 1908   55 56   40/ 14/ 17 1019.5F
Fripp Nearshore  1908   56 56   60/  8/ 12 1019.3F


STATION/POSITION TIME  TEMP    WIND        PRES    WAVE   SWELL
                       AIR SEA DIR/SP/G            HT/PER HT/PER/DIR
                 (UTC) (F)     (DEG/KT/KT) (MB)    (FT/S) (FT/S/D)
5E St. Marys GA  1900      59                N/A     2/11   2/110/11
Frying Pan Buoy  1910   65 64   90/ 12/ 17 1019.2
Buoy 41025       1910   64 70  110/ 14/ 17 1020.9
Cape Lookout NC  1900           40/ 17/ 18 1021.1F
Buoy 41002       1850   72 73  110/ 12/ 14 1020.4F   5/ 7   3/230/ 7
Buoy 41010       NOT AVBL
St Augustine FL  1900   63 59  150/  8/  8 1020.6F


$$




USA.gov is the U.S. government's official web portal to all federal, state and local government web resources and services.